When you browse on this site, cookies collect data to enhance your experience and personalize the content and advertising you see.
Visit our Privacy Policy to learn more. By continuing to use the site, you agree to this use of cookies and data.
  • In Slovakia
  • List of Countries
  • For 7 days
  • Water Temperature
  • Satellite Maps
  • Weather Map
  • Weather Widgets
  • user-avatar
    Login

    Hourly Weather Bolshoe Kobyakovo

    Today, 19 February, Tuesday

    Time Temperature Precipitation Wind Pressure Humidity
    00:00 -9°C° 0 mm 2 mps 748 mmHg 90%
    01:00 -9°C° 0 mm 2 mps 748 mmHg 90%
    02:00 -10°C° 0 mm 3 mps 747 mmHg 89%
    03:00 -11°C° 0 mm 4 mps 747 mmHg 88%
    04:00 -10°C° 0 mm 4 mps 746 mmHg 86%
    05:00 -11°C° 0 mm 5 mps 746 mmHg 85%
    06:00 -10°C° 0 mm 5 mps 745 mmHg 83%
    07:00 -10°C° 0 mm 5 mps 745 mmHg 81%
    08:00 -9°C° 0 mm 6 mps 744 mmHg 78%
    09:00 -8°C° 0 mm 6 mps 744 mmHg 76%
    10:00 -6°C° 0 mm 6 mps 743 mmHg 73%
    11:00 -5°C° 0 mm 6 mps 743 mmHg 70%
    12:00 -4°C° 0 mm 6 mps 742 mmHg 71%
    13:00 -3°C° 0 mm 6 mps 742 mmHg 72%
    14:00 -3°C° 0 mm 6 mps 741 mmHg 73%
    15:00 -2°C° 0 mm 5 mps 741 mmHg 74%
    16:00 -4°C° 0 mm 5 mps 740 mmHg 76%
    17:00 -4°C° 0 mm 5 mps 740 mmHg 78%
    18:00 -5°C° 0 mm 5 mps 739 mmHg 80%
    19:00 -5°C° 0 mm 6 mps 739 mmHg 82%
    20:00 -5°C° 0 mm 6 mps 738 mmHg 84%
    21:00 -5°C° 0 mm 6 mps 737 mmHg 85%
    22:00 -4°C° 0 mm 6 mps 737 mmHg 87%
    23:00 -4°C° 0 mm 6 mps 736 mmHg 89%

    Tomorrow, 20 February, Wednesday

    Time Temperature Precipitation Wind Pressure Humidity
    00:00 -3°C° 0 mm 6 mps 735 mmHg 89%
    01:00 -3°C° 0 mm 6 mps 735 mmHg 88%
    02:00 -3°C° 0 mm 6 mps 734 mmHg 88%
    03:00 -2°C° 0 mm 6 mps 733 mmHg 89%
    04:00 -2°C° 0 mm 6 mps 733 mmHg 89%
    05:00 -1°C° 0 mm 5 mps 732 mmHg 90%
    06:00 -1°C° 0.1 mm 5 mps 732 mmHg 90%
    07:00 -1°C° 0.1 mm 5 mps 732 mmHg 91%
    08:00 -1°C° 0.1 mm 5 mps 732 mmHg 92%
    09:00 0°C° 0 mm 5 mps 732 mmHg 92%
    10:00 0°C° 0 mm 5 mps 732 mmHg 93%
    11:00 0°C° 0 mm 5 mps 732 mmHg 94%
    12:00 0°C° 0 mm 5 mps 732 mmHg 93%
    13:00 0°C° 0 mm 5 mps 732 mmHg 93%
    14:00 0°C° 0 mm 5 mps 731 mmHg 93%
    15:00 0°C° 0.1 mm 5 mps 731 mmHg 92%
    16:00 0°C° 0.1 mm 4 mps 731 mmHg 92%
    17:00 -1°C° 0.1 mm 4 mps 731 mmHg 91%
    18:00 -1°C° 0.1 mm 4 mps 731 mmHg 91%
    19:00 -1°C° 0.1 mm 4 mps 730 mmHg 90%
    20:00 -1°C° 0.1 mm 5 mps 730 mmHg 90%
    21:00 -1°C° 0.4 mm 4 mps 730 mmHg 90%
    22:00 -1°C° 0.4 mm 4 mps 729 mmHg 91%
    23:00 -1°C° 0.4 mm 4 mps 729 mmHg 91%

    Day after tomorrow, 21 February, Thursday

    Time Temperature Precipitation Wind Pressure Humidity
    00:00 -2°C° 0.3 mm 4 mps 729 mmHg 90%
    01:00 -2°C° 0.3 mm 4 mps 729 mmHg 89%
    02:00 -3°C° 0.3 mm 4 mps 729 mmHg 88%
    03:00 -4°C° 0 mm 4 mps 729 mmHg 88%
    04:00 -4°C° 0 mm 4 mps 729 mmHg 89%
    05:00 -5°C° 0 mm 3 mps 729 mmHg 89%
    06:00 -4°C° 0.1 mm 4 mps 730 mmHg 89%
    07:00 -4°C° 0.1 mm 4 mps 730 mmHg 89%
    08:00 -3°C° 0.1 mm 4 mps 731 mmHg 90%
    09:00 -5°C° 0.2 mm 5 mps 731 mmHg 88%
    10:00 -5°C° 0.2 mm 5 mps 731 mmHg 87%
    11:00 -6°C° 0.2 mm 6 mps 732 mmHg 86%
    12:00 -5°C° 0.2 mm 6 mps 732 mmHg 85%
    13:00 -5°C° 0.2 mm 6 mps 733 mmHg 85%
    14:00 -5°C° 0.2 mm 6 mps 733 mmHg 84%
    15:00 -6°C° 0.2 mm 6 mps 734 mmHg 84%
    16:00 -8°C° 0.2 mm 7 mps 735 mmHg 84%
    17:00 -8°C° 0.2 mm 7 mps 735 mmHg 84%
    18:00 -9°C° 0.1 mm 7 mps 736 mmHg 84%
    19:00 -9°C° 0.1 mm 7 mps 737 mmHg 83%
    20:00 -11°C° 0.1 mm 7 mps 738 mmHg 82%
    21:00 -12°C° 0.1 mm 7 mps 739 mmHg 81%
    22:00 -12°C° 0.1 mm 7 mps 740 mmHg 80%
    23:00 -13°C° 0.1 mm 7 mps 741 mmHg 79%

    22 February, Friday

    Time Temperature Precipitation Wind Pressure Humidity
    00:00 -14°C° 0 mm 7 mps 742 mmHg 79%
    01:00 -14°C° 0 mm 7 mps 742 mmHg 79%
    02:00 -15°C° 0 mm 7 mps 743 mmHg 78%
    03:00 -17°C° 0 mm 7 mps 744 mmHg 78%
    04:00 -17°C° 0 mm 7 mps 744 mmHg 78%
    05:00 -17°C° 0 mm 7 mps 745 mmHg 77%
    06:00 -17°C° 0 mm 7 mps 746 mmHg 77%
    07:00 -17°C° 0 mm 7 mps 746 mmHg 77%
    08:00 -17°C° 0 mm 7 mps 747 mmHg 77%
    09:00 -15°C° 0 mm 7 mps 747 mmHg 76%
    10:00 -15°C° 0 mm 7 mps 748 mmHg 74%
    11:00 -14°C° 0 mm 7 mps 748 mmHg 73%
    12:00 -13°C° 0 mm 7 mps 748 mmHg 71%
    13:00 -13°C° 0 mm 8 mps 748 mmHg 68%
    14:00 -12°C° 0 mm 8 mps 748 mmHg 66%
    15:00 -12°C° 0 mm 7 mps 749 mmHg 69%
    16:00 -13°C° 0 mm 7 mps 749 mmHg 71%
    17:00 -12°C° 0 mm 6 mps 749 mmHg 74%
    18:00 -14°C° 0 mm 6 mps 750 mmHg 75%
    19:00 -14°C° 0 mm 6 mps 750 mmHg 76%
    20:00 -15°C° 0 mm 6 mps 751 mmHg 77%
    21:00 -15°C° 0 mm 6 mps 751 mmHg 78%
    22:00 -16°C° 0 mm 6 mps 752 mmHg 79%
    23:00 -15°C° 0 mm 5 mps 752 mmHg 81%

    23 February, Saturday

    Time Temperature Precipitation Wind Pressure Humidity
    00:00 -15°C° 0 mm 5 mps 753 mmHg 81%
    01:00 -15°C° 0 mm 5 mps 753 mmHg 82%
    02:00 -15°C° 0 mm 5 mps 753 mmHg 82%
    03:00 -15°C° 0 mm 5 mps 754 mmHg 83%
    04:00 -17°C° 0 mm 5 mps 754 mmHg 85%
    05:00 -16°C° 0 mm 4 mps 754 mmHg 86%
    06:00 -16°C° 0 mm 4 mps 754 mmHg 87%
    07:00 -17°C° 0 mm 4 mps 754 mmHg 88%
    08:00 -17°C° 0 mm 4 mps 754 mmHg 89%
    09:00 -16°C° 0 mm 4 mps 754 mmHg 86%
    10:00 -15°C° 0 mm 3 mps 754 mmHg 84%
    11:00 -14°C° 0 mm 3 mps 754 mmHg 82%
    12:00 -13°C° 0 mm 3 mps 754 mmHg 79%
    13:00 -12°C° 0 mm 3 mps 754 mmHg 77%
    14:00 -12°C° 0 mm 3 mps 754 mmHg 75%
    15:00 -12°C° 0 mm 3 mps 754 mmHg 78%
    16:00 -12°C° 0 mm 2 mps 755 mmHg 82%
    17:00 -13°C° 0 mm 2 mps 755 mmHg 85%
    18:00 -13°C° 0 mm 2 mps 755 mmHg 87%
    19:00 -13°C° 0 mm 2 mps 756 mmHg 89%
    20:00 -14°C° 0 mm 2 mps 756 mmHg 91%
    21:00 -14°C° 0 mm 2 mps 756 mmHg 92%
    22:00 -12°C° 0 mm 1 mps 757 mmHg 93%
    23:00 -12°C° 0 mm 1 mps 757 mmHg 93%

    24 February, Sunday

    Time Temperature Precipitation Wind Pressure Humidity
    00:00 -12°C° 0 mm 1 mps 757 mmHg 93%
    01:00 -12°C° 0 mm 1 mps 758 mmHg 94%
    02:00 -13°C° 0 mm 1 mps 758 mmHg 94%
    03:00 -13°C° 0 mm 1 mps 758 mmHg 93%
    04:00 -13°C° 0 mm 1 mps 758 mmHg 93%
    05:00 -13°C° 0 mm 0 mps 758 mmHg 93%
    06:00 -13°C° 0 mm 1 mps 758 mmHg 92%
    07:00 -12°C° 0 mm 1 mps 758 mmHg 90%
    08:00 -12°C° 0 mm 1 mps 759 mmHg 89%
    09:00 -10°C° 0 mm 1 mps 759 mmHg 85%
    10:00 -9°C° 0 mm 1 mps 759 mmHg 80%
    11:00 -7°C° 0 mm 1 mps 759 mmHg 76%
    12:00 -7°C° 0 mm 2 mps 758 mmHg 76%
    13:00 -7°C° 0 mm 2 mps 758 mmHg 75%
    14:00 -6°C° 0 mm 2 mps 757 mmHg 75%
    15:00 -7°C° 0 mm 2 mps 756 mmHg 78%
    16:00 -9°C° 0 mm 3 mps 756 mmHg 82%
    17:00 -10°C° 0 mm 3 mps 755 mmHg 85%
    18:00 -10°C° 0 mm 3 mps 755 mmHg 84%
    19:00 -10°C° 0 mm 3 mps 754 mmHg 83%
    20:00 -11°C° 0 mm 4 mps 753 mmHg 82%
    21:00 -11°C° 0 mm 4 mps 753 mmHg 79%
    22:00 -11°C° 0 mm 5 mps 752 mmHg 76%
    23:00 -11°C° 0 mm 5 mps 751 mmHg 73%
    Show more